User: anonymous   Login
Location: Sevilla
(37.3933°N, 5.9839°W)
Time: 02:22:27
(UTC+02:00)
Language:

Vanguard 1 Rocket - Orbit

View from above orbital plane
View from above orbital plane
View from above satellite
View from above satellite

Ground track
Ground track

The orbit data is extracted from the following two-line orbital elements,

1 00016U 58002A   24163.93840897  .00000545  00000-0  71511-3 0  9998
2 00016  34.2783 271.3013 2026030 255.8191  81.0201 10.49292375611661
Epoch (UTC): 11 June 2024 22:31:18
Eccentricity: 0.2026030
inclination: 34.2783°
perigee height: 649 km
apogee height: 4221 km
right ascension of ascending node: 271.3013°
argument of perigee: 255.8191°
revolutions per day: 10.49292375
mean anomaly at epoch: 81.0201°
orbit number at epoch: 61166

The dashed part of the orbit path shows where the satellite is in the earth's shadow,  

DLR